Location: Unspecified
(0.0000°N, 0.0000°E)
Time: 04:22:18
(UTC+00:00)

Explorer 11/Cluster Stage 4 - All Passes

Search period start: 23 December 2014 00:00
Search period end: 02 January 2015 00:00
Orbit: 468 x 1278 km, 28.8° (Epoch: 22 December)

Date Brightness Start Highest point End Pass type
(mag) Time Alt. Az. Time Alt. Az. Time Alt. Az.
23 Dec - 01:52:50 10° NNW 01:55:13 17° NNE 01:57:39 10° ENE night (unlit)
23 Dec - 03:39:58 10° WNW 03:43:34 54° SSW 03:47:40 10° SE visible
23 Dec - 05:31:32 10° SW 05:32:38 11° SSW 05:33:48 10° S visible
23 Dec - 12:50:07 10° SSW 12:56:40 27° SSE 13:03:21 10° E daylight
23 Dec - 14:38:17 10° SW 14:46:41 76° SSE 14:54:35 10° ENE daylight
23 Dec - 16:28:58 10° W 16:36:21 36° NNW 16:42:56 10° NNE daylight
23 Dec - 18:25:42 10° NNW 18:26:09 10° NNW 18:26:37 10° NNW visible
24 Dec - 01:44:52 10° NNW 01:47:49 23° NNE 01:50:46 10° E night (unlit)
24 Dec - 03:32:46 10° W 03:36:10 37° SSW 03:39:56 10° SE visible
24 Dec - 12:42:09 10° SSW 12:49:01 31° SSE 12:56:10 10° E daylight
24 Dec - 14:30:32 10° WSW 14:38:56 89° SSE 14:46:59 10° ENE daylight
24 Dec - 16:21:37 10° W 16:28:40 31° NNW 16:35:05 10° NNE daylight
25 Dec - 01:37:03 10° NW 01:40:24 32° NNE 01:43:41 10° E night (unlit)
25 Dec - 03:25:42 10° W 03:28:47 26° SSW 03:32:05 10° SSE visible
25 Dec - 10:48:46 10° S 10:51:11 12° SSE 10:53:42 10° SE daylight
25 Dec - 12:34:14 10° SW 12:41:20 37° SSE 12:48:52 10° E daylight
25 Dec - 14:22:52 10° WSW 14:31:10 78° NNW 14:39:18 10° NE daylight
25 Dec - 16:14:22 10° W 16:21:00 26° NNW 16:27:10 10° NNE daylight
26 Dec - 01:29:20 10° NW 01:32:59 48° NNE 01:36:28 10° ESE night (unlit)
26 Dec - 03:18:48 10° WSW 03:21:23 18° SSW 03:24:05 10° SSE visible
26 Dec - 10:40:20 10° S 10:43:42 14° SSE 10:47:16 10° SE daylight
26 Dec - 12:26:22 10° SW 12:33:37 44° SSE 12:41:27 10° E daylight
26 Dec - 14:15:15 10° WSW 14:23:23 66° NNW 14:31:32 10° NE daylight
26 Dec - 16:07:14 10° WNW 16:13:22 22° NNW 16:19:10 10° NNE daylight
26 Dec - 23:35:18 10° N 23:36:46 12° NNE 23:38:09 10° NE night (unlit)
27 Dec - 01:21:43 10° NW 01:25:34 73° NNE 01:29:09 10° ESE night (unlit)
27 Dec - 03:12:12 10° WSW 03:14:00 13° SSW 03:15:49 10° S visible
27 Dec - 10:32:08 10° S 10:36:09 16° SSE 10:40:32 10° ESE daylight
27 Dec - 12:18:35 10° SW 12:25:52 52° SSE 12:33:55 10° ENE daylight
27 Dec - 14:07:44 10° WSW 14:15:38 55° NNW 14:23:42 10° NE daylight
27 Dec - 16:00:14 10° WNW 16:05:46 19° NNW 16:11:05 10° NNE daylight
27 Dec - 23:26:35 10° NNW 23:29:24 16° NNE 23:31:58 10° ENE night (unlit)
28 Dec - 01:14:09 10° WNW 01:18:07 75° SSW 01:21:43 10° SE night (unlit)
28 Dec - 10:24:04 10° SSW 10:28:35 19° SSE 10:33:34 10° ESE daylight
28 Dec - 12:10:51 10° SW 12:18:06 62° SSE 12:26:18 10° ENE daylight
28 Dec - 14:00:18 10° W 14:07:53 46° NNW 14:15:46 10° NE daylight
28 Dec - 15:53:23 10° WNW 15:58:12 16° NNW 16:02:54 10° NNE daylight
28 Dec - 23:18:18 10° NNW 23:22:01 22° NNE 23:25:15 10° ENE night (unlit)
29 Dec - 01:06:40 10° WNW 01:10:39 51° SSW 01:14:13 10° SE night (unlit)
29 Dec - 10:16:06 10° SSW 10:20:57 22° SSE 10:26:27 10° ESE daylight
29 Dec - 12:03:11 10° SW 12:10:20 74° SSE 12:18:35 10° ENE daylight
29 Dec - 13:52:57 10° W 14:00:10 38° NNW 14:07:46 10° NE daylight
29 Dec - 15:46:44 10° NW 15:50:40 14° NNW 15:54:34 10° N daylight
29 Dec - 23:10:12 10° NW 23:14:37 31° NNE 23:18:19 10° E night (unlit)
30 Dec - 00:59:16 10° W 01:03:09 36° SSW 01:06:36 10° SE night (unlit)
30 Dec - 10:08:13 10° SSW 10:13:18 26° SSE 10:19:12 10° E daylight
30 Dec - 11:55:35 10° WSW 12:02:35 88° SSE 12:10:47 10° ENE daylight
30 Dec - 13:45:43 10° W 13:52:29 32° NNW 13:59:42 10° NNE daylight
30 Dec - 15:40:24 10° NW 15:43:12 12° NNW 15:45:58 10° N daylight
30 Dec - 21:15:26 10° N 21:17:35 12° NNE 21:19:35 10° NE night (unlit)
30 Dec - 23:02:12 10° NW 23:07:10 43° NNE 23:11:12 10° E night (unlit)
31 Dec - 00:51:57 10° W 00:55:38 27° SSW 00:58:54 10° SSE night (unlit)
31 Dec - 10:00:24 10° SSW 10:05:37 30° SSE 10:11:50 10° E daylight
31 Dec - 11:48:03 10° WSW 11:54:50 77° NNW 12:02:55 10° NE daylight
31 Dec - 13:38:35 10° W 13:44:50 27° NNW 13:51:32 10° NNE daylight
31 Dec - 15:35:17 10° NNW 15:35:46 10° NNW 15:36:14 10° NNW daylight
31 Dec - 21:06:32 10° NNW 21:10:12 16° NNE 21:13:27 10° ENE night (unlit)
31 Dec - 22:54:16 10° NW 22:59:40 59° NNE 23:03:59 10° ESE night (unlit)
01 Jan - 00:44:45 10° W 00:48:06 21° SSW 00:51:06 10° SSE night (unlit)
01 Jan - 09:52:38 10° SSW 09:57:56 36° SSE 10:04:21 10° E daylight
01 Jan - 11:40:36 10° WSW 11:47:08 63° NNW 11:54:58 10° NE daylight
01 Jan - 13:31:36 10° WNW 13:37:14 22° NNW 13:43:18 10° NNE daylight
01 Jan - 20:58:02 10° NNW 21:02:46 21° NNE 21:06:50 10° ENE visible
01 Jan - 22:46:25 10° WNW 22:52:08 81° NNE 22:56:38 10° ESE night (unlit)
